Погода в Ливенке

Россия / Воронежская область     50˚43′48″N   40˚13′29″E
темп.,
°C
ветер,
м/с
пор.,
м/с
влажн.,
%
обл.,
%
осадки,
мм/ч
давл.,
гПа
погр.,
м
18 января, пн
пн1800:00−18˚св3495100 0.0 101784
03:00−19˚св3495100 0.0 101683
06:00−17˚св4694100 0.0 1017201
09:00−17˚св3596100 0.4 1018236
12:00−15˚св3495100 1.2 1018245
15:00−14˚св3495100 2.0 1016243
18:00−16˚св2396100 0.1 101871
21:00−17˚ссв229796 0.3 101823
19 января, вт
вт1900:00−18˚св129795 0.1 101820
03:00−19˚ссв229896 0.1 101820
06:00−19˚ссз119899 0.1 101820
09:00−18˚с129799 0.3 101982
12:00−16˚сз1192100 0.3 1019218
15:00−15˚сз2395100 0.5 1018290
18:00−16˚зсз2397100 0.4 101980
21:00−17˚з3497100 0.6 1020124
20 января, ср
ср2000:00−21˚зсз339996 0.0 102037
03:00−22˚з339796 0.0 102251
06:00−23˚з349692 0.0 102256
09:00−23˚зсз239746 0.0 102442
12:00−18˚з349578 0.0 1024226
15:00−17˚з359486 0.0 1025256
18:00−20˚з229847 0.0 102620
21:00−21˚зюз229824 0.0 102720
21 января, чт
чт2100:00−21˚зюз22980 0.0 102820
03:00−22˚юз22980 0.0 102920
06:00−22˚ююз22980 0.0 102920
09:00−21˚ююз34970 0.0 103058
12:00−15˚ююз47930 0.0 1029215
15:00−14˚ююз59920 0.0 1028271
18:00−16˚ююз511916 0.0 1027201
21:00−15˚ююз612934 0.0 1026251
22 января, пт
пт2200:00−10˚ююз7139497 0.1 1025284
03:00−9˚юз6119599 0.1 1024338
06:00−6˚юз61295100 0.1 1022382
09:00−3˚юз71297100 0.1 1022494
12:00юз51197100 0.0 1021578
15:00+1˚юз61299100 0.0 1021512
18:00+1˚юз51297100 0.0 1021478
21:00юз51195100 0.0 1021405